Regional Weather Roundup
Issued by NWS

Home | Current Version | Previous Version | Graphics & Text | Print | Product List | Glossary On
Versions: 1 2 3 4 5 6 7 8 9 10 11 12 13 14 15 16 17 18 19 20 21 22 23 24 25 26 27
000
ASUS45 KBOU 221607
RWRCO

WEATHER ROUNDUP FOR COLORADO
NATIONAL WEATHER SERVICE DENVER/BOULDER CO
900 AM MST SUN JAN 22 2017

NOTE: "FAIR" INDICATES FEW OR NO CLOUDS BELOW 12000 FEET WITH NO
SIGNIFICANT WEATHER AND/OR OBSTRUCTIONS TO VISIBILITY.

COZ001>005-013-030-031-221700-
...NORTHWEST COLORADO...

CITY           SKY/WX    TMP DP  RH WIND       PRES   REMARKS
CRAIG          FAIR       6   3  87 CALM      30.05S
HAYDEN         FAIR      16  10  79 CALM      30.03R
MEEKER         PTSUNNY   11  10  96 CALM      30.06R
MOUNT WERNER   NOT AVBL
STEAMBOAT SPGS PTSUNNY   20  17  88 CALM      30.02R
WALDEN           N/A     14   7  73 CALM      29.97R
$$

COZ006>008-011-221700-
...WEST CENTRAL VALLEYS...

CITY           SKY/WX    TMP DP  RH WIND       PRES   REMARKS
GRAND JUNCTION FAIR      28  25  88 E8        30.12R WCI  20
MONTROSE       FAIR      23  15  71 SE7       30.15R WCI  15
EAGLE          MOSUNNY   16  14  93 SE6       30.08R WCI   7
RIFLE          FAIR      24  19  81 W5        30.10R WCI  18
DELTA          FAIR      31  21  66 E3        30.15R
NUCLA          FAIR      23  18  80 E6        30.16R WCI  16
$$

COZ017>023-064>068-221700-
...SOUTHWEST COLORADO...

CITY           SKY/WX    TMP DP  RH WIND       PRES   REMARKS
DURANGO        PTSUNNY   12   9  87 E5        30.12R WCI   4
CORTEZ         FAIR      14  12  92 CALM      30.15R
PAGOSA SPRINGS CLOUDY    22  18  86 CALM      30.11R
TELLURIDE      FAIR      12   7  79 S7        30.09R WCI   2
WOLF CREEK PAS PTSUNNY    5   3  92 SW12G21   30.03R WCI -11
$$

COZ009-010-012-014-032>034-037-058>063-221700-
...CENTRAL COLORADO...

CITY           SKY/WX    TMP DP  RH WIND       PRES   REMARKS
ASPEN          FAIR      18  14  84 S3        30.02R
BUENA VISTA    FAIR      23   7  50 W7        29.97R WCI  14
COPPER MTN     NOT AVBL
BERTHOUD PASS  NOT AVBL
COTTONWOOD PAS FAIR      21   5  49 NW12G26   29.91F WCI   9
GUNNISON       FAIR      11   7  84 NE3       30.09R
KREMMLING      FAIR      14   9  79 CALM      30.04R
LEADVILLE      LGT SNOW  14   5  67 NE10      29.94S WCI   1
MONARCH PASS   CLOUDY     5   1  85 W6        30.02R WCI  -6
SALIDA         FAIR      28  11  48 NW10G16   30.05R WCI  19
SUNLIGHT         N/A    N/A N/A N/A MISG      30.01R
WILKERSON PASS FAIR      10   0  61 W8        29.92R WCI  -1
$$

COZ069>075-221700-
...SAN LUIS VALLEY/SANGRE DE CRISTO MOUNTAINS...

CITY           SKY/WX    TMP DP  RH WIND       PRES   REMARKS
ALAMOSA        FAIR       5   5 100 SW3       30.04R
LA VETA PASS   FAIR      16  12  86 NE12G18   29.93R WCI   3
SAGUACHE       FAIR      23  10  58 N14G22    30.01R WCI  11
$$

COZ035-036-038>040-221700-
...NORTHERN COLORADO FRONT RANGE...

CITY           SKY/WX    TMP DP  RH WIND       PRES   REMARKS
DENVER INTL AP FAIR      37  16  42 NE3       29.92R
DMNS CITY PARK   N/A     38   7  26 NW14G20   29.94R
AURORA         MOSUNNY   34  14  42 SW8       29.93R WCI  28
FRONT RANGE AP MOSUNNY   32  19  59 CALM      29.93R
ERIE MUNI ARPT FAIR      36  17  46 SW3       29.93R
BOULDER MUN AP FAIR      37   9  30 S7        29.91R
CENTENNIAL     FAIR      33  10  38 W7        29.93R WCI  27
BROOMFIELD     MOSUNNY   37   9  30 W12       29.93R
FORT COLLINS   FAIR      36  14  41 N3        29.92R
LONGMONT       FAIR      39  17  39 CALM      29.93R
$$

COZ041-046-047-076>085-087-088-221700-
...PIKES PEAK/PALMER DIVIDE AND SOUTHERN FOOTHILLS...

CITY           SKY/WX    TMP DP  RH WIND       PRES   REMARKS
COLO. SPRINGS  FAIR      37   2  22 NW14      29.92R
A. F. ACADEMY  FAIR      35   2  25 NW10G20   29.90R WCI  27
SCHRIEVER AFB  NOT AVBL
ELLICOTT       FAIR     N/A N/A N/A N9        29.91R
FALCON         FAIR      33   3  27 NW14      29.92R WCI  24
FORT CARSON    NOT AVBL
LIMON          FAIR      33  24  69 N14       29.91R WCI  23
MONUMENT HILL  FAIR      28  14  54 NW6       29.93R WCI  22
TRINIDAD       FAIR      27  15  61 W10       29.94R WCI  17
$$

COZ042>045-048>051-090-091-221700-
...NORTHEAST COLORADO...

CITY           SKY/WX    TMP DP  RH WIND       PRES   REMARKS
GREELEY ARPT   FAIR      35  18  49 NW5       29.93R WCI  31
AKRON          CLOUDY    31  22  69 W8        29.91R WCI  23
BURLINGTON     FAIR      35  27  72 NW16      29.90R WCI  25
WRAY           FAIR      36  27  69 NW15      29.90R
STERLING       FAIR      37  23  56 NW23      29.88R
HOLYOKE        FAIR      37  28  70 NW12      29.90R
FORT MORGAN    FAIR      37  17  45 NW21G28   29.92R
$$

COZ086-089-092>099-221700-
...SOUTHEAST COLORADO...

CITY           SKY/WX    TMP DP  RH WIND       PRES   REMARKS
PUEBLO         FAIR      40  17  39 W14       29.94R
LA JUNTA       FAIR      32  25  75 W7        29.93R WCI  26
LAMAR          FAIR      37  29  72 W12       29.91R
SPRINGFIELD      N/A     38  30  73 NW17      29.92R
$$




USA.gov is the U.S. government's official web portal to all federal, state and local government web resources and services.